カタログに戻る

COSMOS 706

運用中軍事HEO
NORAD 7625·PAYLOAD·🇷🇺 Russia

打ち上げ Jan 30, 1975 から Plesetsk Cosmodrome

Loading…

次のパス (今後24時間)

TLE

最新Source: Space-Track

元期: Sep 14, 2026, 02:00 UTC

1 07625U 75007A   26257.08394737 -.00000868  00000-0  00000-0 0  9995
2 07625  63.9087 144.3210 6840170   3.2989 359.7342  2.00476302238221

AllMySatでCOSMOS 706をリアルタイム追跡

Download on the App Store